GW0044 Weather Reports


time (UTC)temp
F
wind
direction
speed
knots
gust
knots
rain 1hr
in
rain 24hr
in
rain mn
in
humidity
%
barometer
mb
20260503203356 71 353 3.5 3.5 0.00 0.01 0.01 43 1017.0
20260503202852 72 15 2.6 2.6 0.00 0.01 0.01 42 1017.0
20260503202351 72 18 3.5 3.5 0.00 0.01 0.01 42 1017.0
20260503201849 71 139 0.0 0.0 0.00 0.01 0.01 42 1017.0
20260503201345 71 7 2.6 2.6 0.00 0.01 0.01 42 1017.4
20260503200843 71 244 1.7 1.7 0.00 0.01 0.01 41 1017.4
20260503200338 70 38 2.6 3.5 0.00 0.01 0.01 41 1017.4
20260503195836 70 6 4.3 4.3 0.00 0.01 0.01 41 1017.7
20260503195332 71 270 1.7 1.7 0.00 0.01 0.01 41 1017.7
20260503194830 70 318 2.6 2.6 0.00 0.01 0.01 41 1017.7
20260503194326 71 334 4.3 5.2 0.00 0.01 0.01 43 1017.7
20260503193822 70 300 3.5 3.5 0.00 0.01 0.01 43 1017.7
20260503193318 70 49 3.5 4.3 0.00 0.01 0.01 44 1017.7
20260503192814 71 234 1.7 1.7 0.00 0.01 0.01 45 1018.1
20260503192309 70 167 1.7 1.7 0.00 0.01 0.01 46 1018.1
20260503191806 69 133 3.5 3.5 0.00 0.01 0.01 46 1018.1
20260503191303 69 42 2.6 2.6 0.00 0.01 0.01 47 1018.4
20260503190800 70 37 2.6 3.5 0.00 0.01 0.01 47 1018.4
20260503190257 69 278 1.7 1.7 0.00 0.01 0.01 47 1018.4
20260503185754 68 348 2.6 2.6 0.00 0.01 0.01 48 1018.4
20260503185250 68 234 0.0 0.0 0.00 0.01 0.01 50 1018.4
20260503184750 69 13 1.7 1.7 0.00 0.01 0.01 49 1018.4
20260503184247 68 184 0.0 0.0 0.00 0.01 0.01 48 1018.4
20260503183742 70 240 1.7 1.7 0.00 0.01 0.01 48 1018.4
20260503183240 69 90 0.0 0.0 0.00 0.01 0.01 48 1018.4
20260503182738 69 34 2.6 2.6 0.00 0.01 0.01 49 1018.7
20260503182237 68 312 1.7 1.7 0.00 0.01 0.01 49 1018.7
20260503181733 67 60 1.7 1.7 0.00 0.01 0.01 50 1018.7
20260503181230 67 152 0.0 0.0 0.00 0.01 0.01 49 1018.7
20260503180726 69 12 3.5 3.5 0.00 0.01 0.01 49 1018.7
20260503180225 69 336 1.7 1.7 0.00 0.01 0.01 50 1018.7
20260503175721 69 240 2.6 2.6 0.00 0.01 0.01 50 1019.1
20260503175219 69 37 1.7 1.7 0.00 0.01 0.01 50 1019.1
20260503174715 69 7 4.3 4.3 0.00 0.01 0.01 49 1019.1
20260503174213 68 342 4.3 4.3 0.00 0.01 0.01 50 1019.1
20260503173708 69 336 5.2 5.2 0.00 0.01 0.01 50 1019.1
20260503173204 69 216 5.2 5.2 0.00 0.01 0.01 51 1019.1
20260503172701 68 199 1.7 1.7 0.00 0.01 0.01 53 1019.1
20260503172158 68 90 0.0 0.0 0.00 0.01 0.01 52 1019.1
20260503171654 67 324 4.3 4.3 0.00 0.01 0.01 53 1019.1
20260503171152 67 59 3.5 3.5 0.00 0.01 0.01 53 1019.1
20260503170648 67 0 3.5 3.5 0.00 0.01 0.01 53 1019.1
20260503170145 68 20 2.6 2.6 0.00 0.01 0.01 54 1019.1
20260503160107 64 45 1.7 1.7 0.00 0.01 0.01 60 1019.8
20260503150537 62 353 0.0 0.0 0.00 0.01 0.01 69 1020.1
20260503130927 56 65 0.0 0.0 0.00 0.00 0.00 99 1019.4
20260503130425 55 72 0.0 0.0 0.00 0.00 0.00 99 1019.4
20260503110823 45 12 0.0 0.0 0.00 0.00 0.00 99 1018.1
20260503110320 44 12 0.0 0.0 0.00 0.00 0.00 99 1018.1
20260503100246 46 12 0.0 0.0 0.00 0.00 0.00 99 1017.4
20260503090206 47 15 0.0 0.0 0.00 0.00 0.00 99 1016.7
20260503081636 48 351 0.0 0.0 0.00 0.00 0.00 99 1016.4
20260503081133 48 45 0.0 0.0 0.00 0.00 0.00 99 1016.0
20260503080629 47 73 0.0 0.0 0.00 0.00 0.00 99 1016.0
20260503080126 48 73 0.0 0.0 0.00 0.00 0.00 99 1016.0
20260503072603 48 74 0.0 0.0 0.00 0.00 0.00 99 1015.7
20260503072100 49 74 0.0 0.0 0.00 0.00 0.00 99 1015.7
20260503071556 49 74 0.0 0.0 0.00 0.00 0.00 99 1015.7
20260503071053 49 74 0.0 0.0 0.00 0.00 0.00 99 1015.7
20260503070549 49 294 0.0 0.0 0.00 0.00 0.00 99 1015.7
20260503055003 51 12 0.0 0.0 0.00 0.00 0.00 99 1015.3
20260503054459 51 12 0.0 0.0 0.00 0.00 0.00 99 1015.3
20260503053956 51 12 0.0 0.0 0.00 0.00 0.00 99 1015.3
20260503053454 51 24 0.0 0.0 0.00 0.00 0.00 99 1015.3
20260503052951 51 25 0.0 0.0 0.00 0.00 0.00 99 1015.7
20260503052449 51 25 0.0 0.0 0.00 0.00 0.00 99 1015.7
20260503051944 51 22 0.0 0.0 0.00 0.00 0.00 99 1015.7
20260503051440 51 9 0.0 0.0 0.00 0.00 0.00 99 1015.3
20260503050938 52 354 0.0 0.0 0.00 0.00 0.00 99 1015.3
20260503050433 52 354 0.0 0.0 0.00 0.00 0.00 99 1015.3
20260503045932 52 354 0.0 0.0 0.00 0.00 0.00 99 1015.3
20260503045429 53 269 0.0 0.0 0.00 0.00 0.00 99 1015.3
20260503044925 53 342 0.0 0.0 0.00 0.00 0.00 99 1015.3
20260503044422 53 354 1.7 1.7 0.00 0.00 0.00 99 1015.0
20260503043920 53 12 0.0 0.0 0.00 0.00 0.00 99 1015.0
20260503043416 53 24 1.7 1.7 0.00 0.00 0.00 99 1015.0
20260503042913 53 17 0.0 0.0 0.00 0.00 0.00 99 1015.0
20260503042410 53 36 0.0 0.0 0.00 0.00 0.00 99 1015.0
20260503041906 53 12 0.0 0.0 0.00 0.00 0.00 99 1015.0
20260503041403 54 339 0.0 0.0 0.00 0.00 0.00 99 1014.7
20260503040900 54 0 0.0 0.0 0.00 0.00 0.00 99 1014.7
20260503040358 54 37 0.0 0.0 0.00 0.00 0.00 99 1014.7
20260503035854 54 12 1.7 1.7 0.00 0.87 0.87 99 1014.7
20260503035351 54 12 1.7 1.7 0.00 0.87 0.87 99 1014.7
20260503034848 54 24 0.0 0.0 0.00 0.87 0.87 99 1014.7
20260503034346 54 330 2.6 3.5 0.00 0.87 0.87 99 1014.3
20260503033843 54 348 1.7 1.7 0.00 0.87 0.87 99 1014.3
20260503033341 55 349 1.7 1.7 0.00 0.87 0.87 99 1014.3
20260503032838 54 24 2.6 2.6 0.00 0.87 0.87 99 1014.0
20260503032337 54 0 1.7 1.7 0.00 0.87 0.87 99 1014.0
20260503031834 54 323 1.7 1.7 0.00 0.87 0.87 99 1014.0
20260503031332 54 25 0.0 0.0 0.00 0.87 0.87 99 1013.7
20260503030828 55 23 0.0 0.0 0.00 0.87 0.87 99 1013.7
20260503030325 55 24 0.9 0.9 0.00 0.87 0.87 99 1013.7
20260503025821 55 17 0.0 0.0 0.00 0.87 0.87 99 1013.7
20260503025319 55 6 0.0 0.0 0.00 0.87 0.87 99 1013.7
20260503024815 55 345 1.7 1.7 0.00 0.87 0.87 99 1013.7
20260503024312 55 21 0.0 0.0 0.00 0.87 0.87 99 1013.3
20260503023809 55 4 0.0 0.0 0.00 0.87 0.87 99 1013.3
20260503023306 55 90 1.7 1.7 0.00 0.87 0.87 99 1013.3
20260503022802 55 10 1.7 1.7 0.00 0.87 0.87 99 1013.0
20260503022257 55 354 1.7 1.7 0.00 0.87 0.87 99 1013.0
20260503021754 55 48 0.0 0.0 0.00 0.87 0.87 99 1013.0
20260503021250 55 273 0.0 0.0 0.00 0.87 0.87 99 1013.0
20260503020748 55 354 1.7 1.7 0.00 0.87 0.87 99 1013.0
20260503020245 55 344 0.9 0.9 0.00 0.87 0.87 99 1013.0
20260503015741 55 108 0.0 0.0 0.00 0.87 0.87 99 1012.6
20260503015238 55 324 0.0 0.0 0.00 0.87 0.87 99 1012.6
20260503014734 55 354 0.0 0.0 0.00 0.87 0.87 99 1012.6
20260503014232 55 10 0.0 0.0 0.00 0.87 0.87 99 1012.6
20260503013729 55 17 0.0 0.0 0.00 0.87 0.87 99 1012.6
20260503013227 55 17 0.0 0.0 0.00 0.87 0.87 99 1012.6
20260503012724 55 102 0.0 0.0 0.00 0.87 0.87 99 1012.6
20260503012221 55 56 0.0 0.0 0.00 0.87 0.87 99 1012.6
20260503011717 56 17 0.0 0.0 0.00 0.87 0.87 99 1012.6
20260503011215 56 36 0.9 0.9 0.00 0.87 0.87 99 1012.6
20260503010710 56 23 0.0 0.0 0.00 0.87 0.87 99 1012.6
20260503010208 56 79 0.0 0.0 0.00 0.87 0.87 99 1012.6
20260503005705 56 15 1.7 1.7 0.00 0.87 0.87 99 1012.3
20260503005202 56 18 1.7 1.7 0.00 0.87 0.87 99 1012.3
20260503004658 56 24 0.0 0.0 0.00 0.87 0.87 99 1012.3
20260503004157 56 0 1.7 1.7 0.00 0.87 0.87 99 1012.0
20260503003654 56 335 1.7 1.7 0.00 0.87 0.87 99 1012.0
20260503003151 56 25 1.7 1.7 0.00 0.87 0.87 99 1012.0
20260503002647 56 12 0.9 0.9 0.00 0.87 0.87 99 1012.3
20260503002144 56 0 2.6 2.6 0.00 0.87 0.87 99 1012.3
20260503001640 56 47 1.7 1.7 0.00 0.87 0.87 99 1012.3
20260503001137 56 15 2.6 2.6 0.00 0.87 0.87 99 1011.6
20260503000635 56 4 1.7 1.7 0.00 0.87 0.87 99 1011.6
20260503000132 56 324 2.6 2.6 0.00 0.87 0.87 99 1011.6
20260502235628 56 6 0.0 0.0 0.00 0.87 0.87 99 1011.6
20260502235127 56 17 0.0 0.0 0.00 0.87 0.87 99 1011.6
20260502234622 56 53 0.0 0.0 0.00 0.87 0.87 99 1011.6
20260502234120 56 282 2.6 2.6 0.00 0.87 0.87 99 1011.3
20260502233616 56 18 0.0 0.0 0.00 0.87 0.87 99 1011.3
20260502233113 56 357 1.7 1.7 0.00 0.87 0.87 99 1011.3
20260502232608 56 338 1.7 1.7 0.00 0.87 0.87 99 1010.9
20260502232106 56 24 1.7 1.7 0.00 0.87 0.87 99 1010.9
20260502231603 56 16 1.7 1.7 0.00 0.87 0.87 99 1010.9
20260502231101 56 102 0.0 0.0 0.00 0.87 0.87 99 1010.9
20260502230558 56 355 2.6 2.6 0.00 0.87 0.87 99 1010.9
20260502230057 56 17 1.7 1.7 0.00 0.87 0.87 99 1010.9
20260502225552 56 344 1.7 1.7 0.01 0.87 0.87 99 1010.9
20260502225050 57 48 0.0 0.0 0.01 0.87 0.87 99 1010.9
20260502224545 57 12 1.7 1.7 0.01 0.87 0.87 99 1010.9
20260502224043 57 348 3.5 3.5 0.01 0.87 0.87 99 1010.9
20260502223540 57 198 0.9 0.9 0.01 0.87 0.87 99 1010.9
20260502223039 57 12 0.0 0.0 0.01 0.87 0.87 99 1010.9
20260502222535 57 355 1.7 1.7 0.01 0.87 0.87 99 1010.9
20260502222032 57 6 3.5 3.5 0.01 0.87 0.87 99 1010.9
20260502221527 57 6 0.0 0.0 0.01 0.87 0.87 99 1010.9
20260502221025 57 6 2.6 2.6 0.01 0.87 0.87 99 1010.9
20260502220520 57 300 1.7 1.7 0.01 0.87 0.87 99 1010.9
20260502220018 57 49 1.7 1.7 0.00 0.86 0.86 99 1010.3
20260502215515 57 6 3.5 3.5 0.00 0.86 0.86 99 1010.3
20260502215012 58 354 3.5 3.5 0.00 0.86 0.86 99 1010.3
20260502214509 57 102 1.7 1.7 0.00 0.86 0.86 99 1010.3
20260502214006 57 264 1.7 1.7 0.00 0.86 0.86 99 1010.3
20260502213503 57 342 0.9 0.9 0.00 0.86 0.86 99 1010.3
20260502213001 58 335 0.0 0.0 0.00 0.86 0.86 99 1009.9
20260502212459 58 0 2.6 2.6 0.00 0.86 0.86 99 1009.9
20260502211956 58 18 0.9 0.9 0.00 0.86 0.86 99 1009.9
20260502211452 58 23 1.7 1.7 0.00 0.86 0.86 99 1010.3
20260502210950 58 338 0.9 0.9 0.00 0.86 0.86 99 1010.3
20260502210446 57 35 0.0 0.0 0.00 0.86 0.86 99 1010.3
20260502205943 57 6 1.7 1.7 0.00 0.86 0.86 99 1009.9
20260502205439 57 24 2.6 2.6 0.00 0.86 0.86 99 1009.9
20260502204937 57 10 2.6 2.6 0.00 0.86 0.86 99 1009.9
20260502204433 57 61 1.7 1.7 0.00 0.86 0.86 99 1009.9
20260502203932 57 16 1.7 1.7 0.00 0.86 0.86 99 1009.9
20260502203429 57 6 0.0 0.0 0.00 0.86 0.86 99 1009.9